GW0126 Weather Reports


Display with metric or nautical units.
time (UTC)temp
F
wind
direction
speed
MPH
gust
MPH
rain 1hr
in
rain 24hr
in
rain mn
in
humidity
%
barometer
mb
20260508012810 44 246 0.0 0.0 0.00 0.00 0.00 94 1018.9
20260508012338 44 246 0.0 0.0 0.00 0.00 0.00 94 1018.8
20260508011750 43 246 0.0 0.0 0.00 0.00 0.00 94 1018.9
20260508011318 43 246 0.0 0.0 0.00 0.00 0.00 94 1018.8
20260508010220 43 246 0.0 0.0 0.00 0.00 0.00 94 1018.7
20260508005709 43 246 0.0 0.0 0.00 0.00 0.00 94 1018.9
20260508004650 43 246 0.0 0.0 0.00 0.00 0.00 94 1018.7
20260508003159 44 246 0.0 0.0 0.00 0.00 0.00 93 1018.6
20260508002610 44 246 0.0 0.0 0.00 0.00 0.00 93 1018.8
20260508002059 44 246 0.0 0.0 0.00 0.00 0.00 93 1018.8
20260508001040 44 246 0.0 1.0 0.00 0.00 0.00 93 1018.7
20260508000529 44 246 0.0 0.0 0.00 0.00 0.00 93 1018.5
20260507235038 44 246 0.0 0.0 0.00 0.00 0.00 91 1018.8
20260507233508 45 246 0.0 0.0 0.00 0.00 0.00 90 1018.7
20260507232922 45 246 0.0 0.0 0.00 0.00 0.00 90 1018.6
20260507232409 45 246 0.0 0.0 0.00 0.00 0.00 90 1018.9
20260507231859 45 246 0.0 0.0 0.00 0.00 0.00 90 1018.8
20260507225858 45 246 0.0 0.0 0.00 0.00 0.00 90 1018.9
20260507225347 46 246 0.0 0.0 0.00 0.00 0.00 90 1018.7
20260507224412 46 246 0.0 0.0 0.00 0.00 0.00 90 1018.7
20260507223739 46 246 0.0 0.0 0.00 0.00 0.00 90 1018.8
20260507222719 46 246 0.0 0.0 0.00 0.00 0.00 89 1018.6
20260507222209 46 246 0.0 0.0 0.00 0.00 0.00 89 1018.7
20260507221149 46 246 0.0 0.0 0.00 0.00 0.00 89 1018.5
20260507220129 46 246 0.0 0.0 0.00 0.00 0.00 89 1018.4
20260507215619 46 246 0.0 0.0 0.00 0.00 0.00 89 1018.4
20260507215147 46 246 0.0 0.0 0.00 0.00 0.00 89 1018.3
20260507214559 46 246 0.0 0.0 0.00 0.00 0.00 89 1018.2
20260507214049 46 246 0.0 0.0 0.00 0.00 0.00 89 1018.3
20260507213029 46 246 0.0 1.0 0.00 0.00 0.00 89 1018.5
20260507211459 46 246 0.0 0.0 0.00 0.00 0.00 89 1018.3
20260507210949 46 245 0.0 0.0 0.00 0.00 0.00 89 1018.2
20260507210439 47 245 0.0 0.0 0.00 0.00 0.00 89 1018.3
20260507205419 46 245 0.0 0.0 0.00 0.00 0.00 88 1018.2
20260507204909 46 245 0.0 0.0 0.00 0.00 0.00 88 1018.1
20260507203417 46 245 0.0 0.0 0.00 0.00 0.00 88 1018.0
20260507201809 46 245 0.0 0.0 0.00 0.00 0.00 87 1017.8
20260507201337 46 245 0.0 0.0 0.00 0.00 0.00 87 1017.8
20260507200749 47 245 0.0 0.0 0.00 0.00 0.00 86 1017.7
20260507200239 47 245 0.0 0.0 0.00 0.00 0.00 86 1017.6
20260507195807 47 246 0.0 0.0 0.00 0.00 0.00 85 1017.5
20260507195257 47 246 0.0 0.0 0.00 0.00 0.00 85 1017.8
20260507194237 47 245 0.0 1.0 0.00 0.00 0.00 84 1017.4
20260507193727 47 245 0.0 0.0 0.00 0.00 0.00 84 1017.7
20260507193139 48 242 0.0 1.0 0.00 0.00 0.00 83 1017.5
20260507192119 48 242 0.0 1.0 0.00 0.00 0.00 83 1017.3
20260507190117 49 221 0.0 1.0 0.00 0.00 0.00 82 1016.9
20260507185532 49 233 0.0 1.0 0.00 0.00 0.00 82 1016.9
20260507185019 49 235 0.0 1.0 0.00 0.00 0.00 83 1017.0
20260507183959 50 228 0.0 1.0 0.00 0.00 0.00 83 1016.8
20260507183448 50 207 0.0 0.0 0.00 0.00 0.00 84 1016.7
20260507182939 51 206 0.0 0.0 0.00 0.00 0.00 85 1016.9
20260507182429 51 207 0.0 0.0 0.00 0.00 0.00 85 1017.0
20260507181922 51 203 0.0 1.0 0.00 0.00 0.00 85 1016.8
20260507180859 51 184 0.0 0.0 0.00 0.00 0.00 84 1016.9
20260507175410 51 184 0.0 0.0 0.00 0.00 0.00 84 1016.7
20260507174818 51 184 0.0 0.0 0.00 0.00 0.00 83 1016.5
20260507174253 51 184 0.0 0.0 0.00 0.00 0.00 83 1016.5
20260507173218 51 184 0.0 0.0 0.00 0.00 0.00 83 1016.6
20260507172707 51 186 0.0 0.0 0.00 0.00 0.00 82 1016.5
20260507172157 51 186 0.0 0.0 0.00 0.00 0.00 81 1016.6
20260507170117 52 186 0.0 0.0 0.00 0.00 0.00 81 1016.0
20260507165607 52 187 0.0 0.0 0.00 0.00 0.00 82 1016.3
20260507164626 52 186 0.0 1.0 0.00 0.00 0.00 81 1016.1
20260507164118 52 185 0.0 1.0 0.00 0.00 0.00 81 1016.1
20260507163527 52 185 0.0 0.0 0.00 0.00 0.00 80 1016.2
20260507163021 52 186 0.0 1.0 0.00 0.00 0.00 81 1016.0
20260507162507 52 198 1.0 1.0 0.00 0.00 0.00 80 1015.9
20260507161957 52 213 0.0 1.0 0.00 0.00 0.00 79 1016.2
20260507160937 52 206 0.0 1.0 0.00 0.00 0.00 79 1016.0
20260507155958 53 196 1.0 1.0 0.00 0.00 0.00 79 1016.0
20260507154900 53 201 1.0 2.0 0.00 0.00 0.00 78 1016.0
20260507154347 53 201 0.0 1.0 0.00 0.00 0.00 78 1016.2
20260507153405 53 169 0.0 2.0 0.00 0.00 0.00 76 1015.8
20260507152820 53 202 1.0 2.0 0.00 0.00 0.00 76 1015.6
20260507152307 53 184 0.0 1.0 0.00 0.00 0.00 75 1015.8
20260507151836 53 176 1.0 1.0 0.00 0.00 0.00 74 1015.8
20260507150815 54 254 1.0 1.0 0.00 0.00 0.00 71 1015.6
20260507145207 53 256 0.0 1.0 0.00 0.00 0.00 72 1015.4
20260507144657 54 255 1.0 2.0 0.00 0.00 0.00 70 1015.2
20260507144147 54 273 2.0 3.0 0.00 0.00 0.00 72 1015.3
20260507143719 54 172 1.0 1.0 0.00 0.00 0.00 72 1015.2
20260507142617 53 260 1.0 1.0 0.00 0.00 0.00 74 1015.4
20260507141047 54 228 0.0 1.0 0.00 0.00 0.00 72 1015.3
20260507135517 53 245 1.0 2.0 0.00 0.00 0.00 73 1015.3
20260507135010 53 209 1.0 1.0 0.00 0.00 0.00 74 1015.2
20260507133947 53 252 0.0 1.0 0.00 0.00 0.00 75 1015.2
20260507133050 53 246 0.0 2.0 0.00 0.00 0.00 75 1015.2
20260507132417 53 222 0.0 1.0 0.00 0.00 0.00 74 1015.1
20260507131357 53 236 1.0 2.0 0.00 0.00 0.00 74 1015.1
20260507125827 53 154 3.0 8.0 0.00 0.00 0.00 74 1015.0
20260507124807 53 196 0.0 1.0 0.00 0.00 0.00 74 1014.9
20260507123746 53 227 1.0 2.0 0.00 0.00 0.00 73 1014.8
20260507123237 53 246 0.0 1.0 0.00 0.00 0.00 74 1014.8
20260507122726 53 211 0.0 0.0 0.00 0.00 0.00 75 1014.6
20260507122339 53 228 1.0 1.0 0.00 0.00 0.00 74 1014.9
20260507121709 53 228 1.0 1.0 0.00 0.00 0.00 74 1014.8
20260507121156 53 216 1.0 2.0 0.00 0.00 0.00 74 1015.1
20260507115158 53 222 1.0 2.0 0.00 0.00 0.00 75 1014.9
20260507114606 52 220 0.0 1.0 0.00 0.00 0.00 76 1014.8
20260507113037 51 264 2.0 3.0 0.00 0.00 0.00 76 1014.8
20260507112016 51 242 0.0 3.0 0.00 0.00 0.00 77 1014.8
20260507111547 51 264 2.0 3.0 0.00 0.00 0.00 77 1014.8
20260507110956 51 236 0.0 2.0 0.00 0.00 0.00 77 1014.6
20260507110446 51 240 1.0 3.0 0.00 0.00 0.00 77 1014.9
20260507105936 50 243 2.0 3.0 0.00 0.00 0.00 78 1014.7
20260507105505 50 16 2.0 4.0 0.00 0.00 0.00 79 1014.8
20260507104406 50 217 1.0 2.0 0.00 0.00 0.00 80 1014.8
20260507103856 49 229 1.0 2.0 0.00 0.00 0.00 81 1014.8
20260507103346 49 189 1.0 2.0 0.00 0.00 0.00 81 1014.7
20260507102326 49 248 1.0 1.0 0.00 0.00 0.00 81 1014.6
20260507100756 49 230 1.0 2.0 0.00 0.00 0.00 82 1014.4
20260507100324 48 238 0.0 2.0 0.00 0.00 0.00 84 1014.4
20260507095736 48 204 0.0 2.0 0.00 0.00 0.00 84 1014.4
20260507094332 47 169 1.0 1.0 0.00 0.00 0.00 86 1014.3
20260507093656 47 329 3.0 4.0 0.00 0.00 0.00 86 1014.3
20260507093146 47 233 0.0 1.0 0.00 0.00 0.00 87 1014.1
20260507092126 47 247 1.0 2.0 0.00 0.00 0.00 88 1014.0
20260507091616 47 242 2.0 2.0 0.00 0.00 0.00 88 1013.9
20260507091144 47 224 0.0 1.0 0.00 0.00 0.00 89 1013.9
20260507090556 46 206 0.0 1.0 0.00 0.00 0.00 89 1013.8
20260507090046 46 269 1.0 2.0 0.00 0.00 0.00 90 1013.9
20260507085536 46 233 1.0 6.0 0.00 0.00 0.00 90 1013.7
20260507085026 46 1 1.0 2.0 0.00 0.00 0.00 90 1013.6
20260507084516 47 234 1.0 1.0 0.00 0.00 0.00 90 1013.6
20260507081926 47 251 2.0 2.0 0.00 0.00 0.00 87 1013.1
20260507081420 47 270 2.0 2.0 0.00 0.00 0.00 86 1013.3
20260507080944 48 243 0.0 2.0 0.00 0.00 0.00 85 1013.1
20260507080435 48 236 0.0 1.0 0.00 0.00 0.00 85 1013.1
20260507080008 47 234 0.0 2.0 0.00 0.00 0.00 85 1013.0
20260507075336 47 240 1.0 3.0 0.00 0.00 0.00 85 1012.9
20260507074825 47 255 1.0 3.0 0.00 0.00 0.00 85 1013.1
20260507074316 47 204 0.0 2.0 0.00 0.00 0.00 86 1013.0
20260507073805 47 300 1.0 3.0 0.00 0.00 0.00 85 1012.9
20260507073255 47 250 1.0 2.0 0.00 0.00 0.00 86 1012.6
20260507072746 47 182 1.0 2.0 0.00 0.00 0.00 87 1012.8
20260507072314 47 227 1.0 1.0 0.00 0.00 0.00 87 1013.0
20260507071725 46 280 0.0 2.0 0.00 0.00 0.00 87 1012.7
20260507070155 46 227 0.0 2.0 0.00 0.00 0.00 87 1012.5
20260507065724 46 244 1.0 2.0 0.00 0.00 0.00 87 1012.5
20260507065136 46 242 1.0 2.0 0.00 0.00 0.00 87 1012.6
20260507064625 46 219 0.0 2.0 0.00 0.00 0.00 87 1012.5
20260507064238 46 219 1.0 2.0 0.00 0.00 0.00 87 1012.5
20260507063605 46 185 2.0 3.0 0.00 0.00 0.00 87 1012.4
20260507063055 46 202 0.0 1.0 0.00 0.00 0.00 87 1012.5
20260507062545 46 226 1.0 2.0 0.00 0.00 0.00 87 1012.2
20260507062113 46 232 0.0 1.0 0.00 0.00 0.00 87 1012.0
20260507061525 46 232 1.0 1.0 0.00 0.00 0.00 88 1012.0
20260507061015 46 226 0.0 1.0 0.00 0.00 0.00 88 1011.9
20260507060034 46 242 1.0 1.0 0.00 0.00 0.00 88 1012.0
20260507054504 45 252 1.0 1.0 0.00 0.00 0.00 89 1011.9
20260507053915 45 227 0.0 2.0 0.00 0.00 0.00 90 1011.8
20260507053447 45 220 0.0 1.0 0.00 0.00 0.00 90 1011.8
20260507052855 45 227 1.0 1.0 0.00 0.00 0.00 90 1011.7
20260507052345 45 243 1.0 2.0 0.00 0.00 0.00 90 1011.6
20260507051835 45 229 0.0 0.0 0.00 0.00 0.00 89 1011.2
20260507051325 45 244 2.0 2.0 0.00 0.00 0.00 89 1011.3
20260507050815 45 220 0.0 0.0 0.00 0.00 0.00 89 1011.6
20260507050305 45 237 0.0 2.0 0.00 0.00 0.00 89 1011.6
20260507045755 45 226 0.0 1.0 0.00 0.00 0.00 89 1011.3
20260507044225 45 199 0.0 1.0 0.00 0.00 0.00 90 1011.3
20260507043715 45 238 0.0 1.0 0.00 0.00 0.00 89 1011.3
20260507043205 45 233 0.0 1.0 0.00 0.00 0.00 89 1011.4
20260507042734 45 233 0.0 1.0 0.00 0.00 0.00 89 1011.4
20260507042145 45 227 0.0 1.0 0.00 0.00 0.00 89 1011.3
20260507041635 45 224 0.0 2.0 0.00 0.00 0.00 89 1011.1
20260507041125 45 226 1.0 3.0 0.00 0.00 0.00 89 1011.0
20260507040143 45 233 1.0 2.0 0.00 0.00 0.00 90 1011.1
20260507035636 45 250 1.0 3.0 0.00 0.00 0.00 90 1011.0
20260507034616 45 197 0.0 1.0 0.00 0.00 0.00 91 1010.9
20260507034025 45 236 1.0 1.0 0.00 0.00 0.00 91 1011.0
20260507033515 45 209 0.0 2.0 0.00 0.00 0.00 91 1010.7
20260507033005 45 242 0.0 1.0 0.00 0.00 0.00 91 1010.7
20260507032458 45 221 0.0 1.0 0.00 0.00 0.00 91 1010.6
20260507031435 45 243 1.0 1.0 0.00 0.00 0.00 91 1010.6
20260507030415 45 222 0.0 1.0 0.00 0.00 0.00 91 1010.7
20260507025905 45 236 2.0 2.0 0.00 0.00 0.00 91 1010.7
20260507025355 45 233 0.0 2.0 0.00 0.00 0.00 91 1010.5
20260507023828 45 214 0.0 2.0 0.00 0.00 0.00 91 1010.6
20260507023353 45 192 1.0 2.0 0.00 0.00 0.00 92 1010.5
20260507022255 45 235 0.0 1.0 0.00 0.00 0.00 92 1010.6
20260507021823 45 233 0.0 2.0 0.00 0.00 0.00 92 1010.4
20260507021313 45 230 1.0 2.0 0.00 0.00 0.00 92 1010.3
20260507020725 45 235 0.0 2.0 0.00 0.00 0.00 92 1010.5
20260507013624 45 212 0.0 2.0 0.00 0.00 0.00 92 1010.7
20260507013115 45 231 0.0 0.0 0.00 0.00 0.00 92 1010.5